When you browse on this site, cookies collect data to enhance your experience and personalize the content and advertising you see.
Visit our Privacy Policy to learn more. By continuing to use the site, you agree to this use of cookies and data.
  • In Hungary
  • List of Countries
  • For 7 days
  • Water Temperature
  • Weather Map
  • News
  • Weather Widgets
  • user-avatar
    Login

    Hourly Weather Klonow

    Today, 10 April, Friday

    Time Temperature Precipitation Wind Pressure Humidity
    00:00 +7°C° 0 mm 3 mps 751 mmHg 72%
    01:00 +6°C° 0 mm 2 mps 751 mmHg 66%
    02:00 +5°C° 0 mm 2 mps 751 mmHg 66%
    03:00 +5°C° 0 mm 2 mps 751 mmHg 66%
    04:00 +5°C° 0 mm 1 mps 751 mmHg 66%
    05:00 +4°C° 0 mm 2 mps 752 mmHg 65%
    06:00 +5°C° 0 mm 2 mps 752 mmHg 64%
    07:00 +6°C° 0 mm 2 mps 752 mmHg 62%
    08:00 +7°C° 0 mm 2 mps 752 mmHg 56%
    09:00 +9°C° 0 mm 2 mps 753 mmHg 50%
    10:00 +10°C° 0 mm 2 mps 753 mmHg 44%
    11:00 +12°C° 0 mm 2 mps 752 mmHg 42%
    12:00 +13°C° 0 mm 2 mps 752 mmHg 39%
    13:00 +14°C° 0 mm 2 mps 752 mmHg 37%
    14:00 +14°C° 0 mm 2 mps 751 mmHg 38%
    15:00 +14°C° 0 mm 2 mps 751 mmHg 39%
    16:00 +13°C° 0 mm 3 mps 750 mmHg 41%
    17:00 +13°C° 0 mm 2 mps 750 mmHg 45%
    18:00 +10°C° 0 mm 2 mps 750 mmHg 50%
    19:00 +10°C° 0 mm 1 mps 750 mmHg 55%
    20:00 +9°C° 0 mm 1 mps 751 mmHg 55%
    21:00 +9°C° 0 mm 1 mps 751 mmHg 56%
    22:00 +8°C° 0 mm 1 mps 751 mmHg 57%
    23:00 +7°C° 0 mm 1 mps 751 mmHg 58%

    Tomorrow, 11 April, Saturday

    Time Temperature Precipitation Wind Pressure Humidity
    00:00 +7°C° 0 mm 1 mps 751 mmHg 60%
    01:00 +6°C° 0 mm 1 mps 751 mmHg 61%
    02:00 +6°C° 0 mm 1 mps 751 mmHg 63%
    03:00 +5°C° 0 mm 1 mps 751 mmHg 66%
    04:00 +4°C° 0 mm 2 mps 751 mmHg 68%
    05:00 +5°C° 0 mm 2 mps 752 mmHg 67%
    06:00 +5°C° 0 mm 2 mps 752 mmHg 66%
    07:00 +6°C° 0 mm 2 mps 752 mmHg 65%
    08:00 +8°C° 0 mm 2 mps 753 mmHg 59%
    09:00 +9°C° 0 mm 2 mps 753 mmHg 53%
    10:00 +12°C° 0 mm 2 mps 753 mmHg 47%
    11:00 +13°C° 0 mm 2 mps 753 mmHg 44%
    12:00 +14°C° 0 mm 2 mps 753 mmHg 41%
    13:00 +14°C° 0 mm 1 mps 753 mmHg 38%
    14:00 +14°C° 0 mm 1 mps 753 mmHg 38%
    15:00 +14°C° 0 mm 1 mps 752 mmHg 38%
    16:00 +14°C° 0 mm 1 mps 752 mmHg 37%
    17:00 +13°C° 0 mm 1 mps 752 mmHg 42%
    18:00 +12°C° 0 mm 1 mps 752 mmHg 46%
    19:00 +10°C° 0 mm 1 mps 751 mmHg 50%
    20:00 +10°C° 0 mm 1 mps 751 mmHg 51%
    21:00 +9°C° 0 mm 1 mps 751 mmHg 53%
    22:00 +7°C° 0 mm 0 mps 751 mmHg 54%
    23:00 +8°C° 0 mm 1 mps 751 mmHg 56%

    Day after tomorrow, 12 April, Sunday

    Time Temperature Precipitation Wind Pressure Humidity
    00:00 +8°C° 0 mm 1 mps 751 mmHg 58%
    01:00 +7°C° 0 mm 1 mps 751 mmHg 59%
    02:00 +7°C° 0 mm 1 mps 750 mmHg 61%
    03:00 +6°C° 0 mm 2 mps 750 mmHg 63%
    04:00 +5°C° 0 mm 2 mps 749 mmHg 65%
    05:00 +6°C° 0 mm 2 mps 749 mmHg 64%
    06:00 +7°C° 0 mm 2 mps 749 mmHg 63%
    07:00 +8°C° 0 mm 3 mps 749 mmHg 62%
    08:00 +10°C° 0 mm 3 mps 748 mmHg 57%
    09:00 +12°C° 0 mm 3 mps 748 mmHg 53%
    10:00 +16°C° 0 mm 3 mps 748 mmHg 48%
    11:00 +17°C° 0 mm 3 mps 747 mmHg 44%
    12:00 +18°C° 0 mm 3 mps 746 mmHg 41%
    13:00 +19°C° 0 mm 3 mps 746 mmHg 38%
    14:00 +19°C° 0 mm 3 mps 745 mmHg 39%
    15:00 +19°C° 0 mm 3 mps 745 mmHg 40%
    16:00 +19°C° 0 mm 3 mps 744 mmHg 41%
    17:00 +17°C° 0 mm 3 mps 744 mmHg 47%
    18:00 +16°C° 0 mm 2 mps 743 mmHg 54%
    19:00 +14°C° 0 mm 2 mps 743 mmHg 60%
    20:00 +13°C° 0 mm 2 mps 743 mmHg 64%
    21:00 +11°C° 0 mm 3 mps 743 mmHg 67%
    22:00 +11°C° 0 mm 3 mps 742 mmHg 71%
    23:00 +10°C° 0 mm 3 mps 742 mmHg 75%

    13 April, Monday

    Time Temperature Precipitation Wind Pressure Humidity
    00:00 +10°C° 0 mm 3 mps 742 mmHg 79%
    01:00 +10°C° 0 mm 3 mps 741 mmHg 84%
    02:00 +9°C° 0 mm 3 mps 741 mmHg 85%
    03:00 +9°C° 0 mm 3 mps 740 mmHg 87%
    04:00 +9°C° 0 mm 3 mps 740 mmHg 88%
    05:00 +10°C° 0 mm 3 mps 739 mmHg 84%
    06:00 +11°C° 0 mm 4 mps 739 mmHg 79%
    07:00 +12°C° 0 mm 4 mps 739 mmHg 75%
    08:00 +14°C° 0.1 mm 4 mps 739 mmHg 69%
    09:00 +15°C° 0.1 mm 5 mps 739 mmHg 63%
    10:00 +17°C° 0.1 mm 5 mps 738 mmHg 57%
    11:00 +17°C° 0.7 mm 6 mps 738 mmHg 58%
    12:00 +17°C° 0.7 mm 7 mps 738 mmHg 59%
    13:00 +17°C° 0.7 mm 8 mps 738 mmHg 61%
    14:00 +16°C° 0.4 mm 7 mps 738 mmHg 63%
    15:00 +15°C° 0.4 mm 7 mps 738 mmHg 65%
    16:00 +14°C° 0.4 mm 7 mps 737 mmHg 67%
    17:00 +10°C° 0.3 mm 7 mps 738 mmHg 73%
    18:00 +6°C° 0.3 mm 8 mps 739 mmHg 79%
    19:00 +2°C° 0.3 mm 8 mps 740 mmHg 86%
    20:00 +3°C° 0 mm 7 mps 741 mmHg 81%
    21:00 +2°C° 0 mm 6 mps 741 mmHg 76%
    22:00 +2°C° 0 mm 5 mps 742 mmHg 70%
    23:00 +1°C° 0 mm 5 mps 743 mmHg 70%

    14 April, Tuesday

    Time Temperature Precipitation Wind Pressure Humidity
    00:00 0°C° 0 mm 5 mps 743 mmHg 69%
    01:00 -1°C° 0 mm 4 mps 743 mmHg 68%
    02:00 -2°C° 0 mm 4 mps 744 mmHg 69%
    03:00 -2°C° 0 mm 4 mps 744 mmHg 71%
    04:00 -3°C° 0 mm 4 mps 744 mmHg 73%
    05:00 -2°C° 0 mm 5 mps 745 mmHg 69%
    06:00 -1°C° 0 mm 5 mps 745 mmHg 66%
    07:00 -2°C° 0 mm 6 mps 745 mmHg 62%
    08:00 +1°C° 0 mm 6 mps 746 mmHg 55%
    09:00 +2°C° 0 mm 6 mps 746 mmHg 47%
    10:00 +4°C° 0 mm 6 mps 746 mmHg 40%
    11:00 +4°C° 0 mm 7 mps 746 mmHg 40%
    12:00 +5°C° 0 mm 7 mps 747 mmHg 40%
    13:00 +5°C° 0 mm 7 mps 747 mmHg 40%
    14:00 +5°C° 0 mm 7 mps 747 mmHg 41%
    15:00 +5°C° 0 mm 7 mps 747 mmHg 42%
    16:00 +5°C° 0 mm 7 mps 747 mmHg 43%
    17:00 +4°C° 0 mm 6 mps 747 mmHg 46%
    18:00 +3°C° 0 mm 4 mps 747 mmHg 49%
    19:00 +2°C° 0 mm 3 mps 748 mmHg 51%
    20:00 +2°C° 0 mm 3 mps 748 mmHg 53%
    21:00 +2°C° 0 mm 2 mps 748 mmHg 55%
    22:00 +1°C° 0 mm 2 mps 749 mmHg 57%
    23:00 +1°C° 0 mm 2 mps 749 mmHg 60%

    15 April, Wednesday

    Time Temperature Precipitation Wind Pressure Humidity
    00:00 -1°C° 0 mm 2 mps 749 mmHg 63%
    01:00 -1°C° 0 mm 2 mps 749 mmHg 67%
    02:00 -1°C° 0 mm 2 mps 749 mmHg 68%
    03:00 -2°C° 0 mm 2 mps 749 mmHg 70%
    04:00 -2°C° 0 mm 2 mps 749 mmHg 72%
    05:00 -1°C° 0 mm 2 mps 749 mmHg 68%
    06:00 0°C° 0 mm 3 mps 749 mmHg 64%
    07:00 +1°C° 0 mm 3 mps 749 mmHg 61%
    08:00 +3°C° 0 mm 3 mps 749 mmHg 55%
    09:00 +5°C° 0 mm 4 mps 749 mmHg 48%
    10:00 +7°C° 0 mm 4 mps 749 mmHg 42%
    11:00 +8°C° 0 mm 4 mps 748 mmHg 41%
    12:00 +10°C° 0 mm 4 mps 748 mmHg 39%
    13:00 +11°C° 0 mm 4 mps 748 mmHg 38%
    14:00 +11°C° 0 mm 4 mps 747 mmHg 40%
    15:00 +11°C° 0 mm 4 mps 747 mmHg 41%
    16:00 +11°C° 0 mm 4 mps 747 mmHg 43%
    17:00 +10°C° 0 mm 4 mps 747 mmHg 49%
    18:00 +8°C° 0 mm 3 mps 746 mmHg 56%
    19:00 +7°C° 0 mm 3 mps 746 mmHg 62%
    20:00 +5°C° 0 mm 3 mps 746 mmHg 65%
    21:00 +5°C° 0 mm 3 mps 746 mmHg 69%
    22:00 +4°C° 0 mm 3 mps 746 mmHg 72%
    23:00 +3°C° 0 mm 3 mps 746 mmHg 75%
    Show more